Windsor Heights, WV

6:29 PM EST on February 09, 2016 (GMT -0500)
Wheeling-Ohio County

Weather History for KHLG - July, 2013

Change the Weather History Date:

Friday, July 26, 2013

  Actual Average Record
Temperature  
Mean Temperature 65 °F 72 °F  
Max Temperature 79 °F 82 °F 93 °F (1953)
Min Temperature 51 °F 63 °F 51 °F (2013)
Degree Days  
Heating Degree Days 0 0  
Month to date heating degree days 2 0  
Since 1 June heating degree days 23 38  
Since 1 July heating degree days 2 0  
Cooling Degree Days 0    
Month to date cooling degree days 224  
Year to date cooling degree days 464  
Since 1 June cooling degree days 358  
Growing Degree Days 14 (Base 50)    
Moisture  
Dew Point 55 °F    
Average Humidity 70    
Maximum Humidity 100    
Minimum Humidity 39    
Precipitation  
Precipitation 0.00 in 0.14 in 2.75 in (2004)
Month to date precipitation 4.98 3.41  
Sea Level Pressure  
Sea Level Pressure 30.08 in    
Wind  
Wind Speed 2 mph (SSW)    
Max Wind Speed 9 mph    
Max Gust Speed 13 mph    
Visibility 8 miles    
Events Fog    
T = Trace of Precipitation, MM = Missing Value Source: NWS Daily Summary

Daily Weather History Graph

Daily Weather History Graph

Search for Another Location

Airport or City:

Trip Planner

Search our weather history database for the weather conditions in past years. The results will help you decide how hot, cold, wet, or windy it might be!

Date:

Astronomy

Jul. 26, 2013 Rise Set
Actual Time 6:15 AM EDT 8:42 PM EDT
Civil Twilight 5:44 AM EDT 9:13 PM EDT
Nautical Twilight 5:05 AM EDT 9:51 PM EDT
Astronomical Twilight 4:23 AM EDT 10:34 PM EDT
Moon 10:55 PM EDT (7/26) 10:50 AM EDT (7/26)
Length of Visible Light 15h 28m
Length of Day
14h 27m
Waning Gibbous, 80% of the Moon is Illuminated
Jul 26
Waning Gibbous
Jul 29
Last Quarter
Aug 6
New
Aug 14
First Quarter
Aug 20
Full

Hourly Weather History & Observations

Time (EDT) Temp. Dew Point Humidity Pressure Visibility Wind Dir Wind Speed Gust Speed Precip Events Conditions
12:53 AM 60.1 °F 53.1 °F 78% 30.09 in 10.0 mi Calm Calm - N/A   Clear
1:53 AM 57.9 °F 55.9 °F 93% 30.09 in 10.0 mi Calm Calm - N/A   Clear
2:53 AM 55.0 °F 54.0 °F 96% 30.09 in 9.0 mi Calm Calm - N/A   Clear
3:53 AM 55.0 °F 54.0 °F 96% 30.09 in 10.0 mi Calm Calm - N/A   Clear
4:53 AM 54.0 °F 54.0 °F 100% 30.09 in 7.0 mi Calm Calm - N/A   Clear
5:53 AM 55.0 °F 54.0 °F 96% 30.09 in 6.0 mi Calm Calm - N/A   Clear
6:15 AM 53.6 °F 53.6 °F 100% 30.11 in 1.5 mi Calm Calm - N/A   Clear
6:18 AM 53.6 °F 53.6 °F 100% 30.11 in 0.5 mi Calm Calm - N/A Fog Fog
6:53 AM 51.1 °F 51.1 °F 100% 30.11 in 0.2 mi Calm Calm - N/A Fog Fog
7:01 AM 51.8 °F 51.8 °F 100% 30.11 in 3.0 mi Calm Calm - N/A   Clear
7:53 AM 57.0 °F 55.9 °F 96% 30.12 in 3.0 mi Calm Calm - N/A   Clear
8:53 AM 62.1 °F 57.9 °F 86% 30.12 in 10.0 mi Calm Calm - N/A   Clear
9:53 AM 70.0 °F 59.0 °F 68% 30.11 in 10.0 mi East 3.5 mph - N/A   Clear
10:53 AM 71.1 °F 53.1 °F 53% 30.11 in 10.0 mi Calm Calm - N/A   Clear
11:53 AM 73.0 °F 54.0 °F 51% 30.11 in 10.0 mi West 4.6 mph - N/A   Clear
12:53 PM 75.0 °F 55.9 °F 51% 30.10 in 10.0 mi WNW 5.8 mph - N/A   Clear
1:53 PM 75.0 °F 52.0 °F 44% 30.09 in 10.0 mi Variable 3.5 mph - N/A   Clear
2:53 PM 77.0 °F 55.0 °F 47% 30.07 in 10.0 mi Variable 3.5 mph - N/A   Clear
3:53 PM 78.1 °F 55.0 °F 45% 30.05 in 10.0 mi SW 6.9 mph - N/A   Clear
4:53 PM 78.1 °F 52.0 °F 40% 30.04 in 10.0 mi WSW 4.6 mph - N/A   Clear
5:53 PM 78.1 °F 53.1 °F 42% 30.03 in 10.0 mi South 3.5 mph - N/A   Clear
6:53 PM 77.0 °F 54.0 °F 45% 30.02 in 10.0 mi Calm Calm - N/A   Clear
7:53 PM 73.9 °F 57.0 °F 55% 30.02 in 10.0 mi South 4.6 mph - N/A   Clear
8:53 PM 72.0 °F 55.0 °F 55% 30.01 in 10.0 mi SSW 4.6 mph - N/A   Clear
9:53 PM 69.1 °F 57.0 °F 65% 30.02 in 10.0 mi South 3.5 mph - N/A   Clear
10:53 PM 68.0 °F 57.0 °F 68% 30.02 in 10.0 mi Calm Calm - N/A   Clear
11:53 PM 64.9 °F 57.0 °F 75% 30.01 in 10.0 mi SE 3.5 mph - N/A   Clear